CZ-4 DEB, 26137

Orbit data source: Space-Track

CZ-4 DEB, 26137 is space debris in SSO originally from a launch on Thu, 14 Oct 1999 UTC launched from the Taiyaun Space Center, China (TSC). Debris objects in space refer to the collection of defunct objects orbiting the Earth. Examples of debris include non-operational satellites, rocket bodies, and fragments generated from explosions, collisions, or faulty payload assembly.

Loading next visibility...
Identifier
26137, 1999-057Z
Orbit
SSO
Country
Flag of CNCN / PRC
Related business
Manufacturer
Unknown
Mission
Spacecraft
Bus & Motor
Unknown
Mass
Unknown
Launch date (UTC)
1999-10-14 (26 years ago)
Launch vehicle
Unknown
Launch site
Taiyaun Space Center, China (TSC)
Object type
Payload
Rocket body
Debris
Shape & HBR
Unknown shape, 0.1 m
Radar Cross Section
Medium (>0.1 m² and <1 m²)

Expand to show TLE details & history
Last TLE update: 6 hours ago

TLE from 6 hours ago
0 CZ-4 DEB
1 26137U 99057Z   25297.84205639  .00002575  00000-0  99895-3 0  9993
2 26137  98.9129  57.1921 0295228 357.0921 119.3884 14.09622833303210
Epoch: 2025-10-24T20:12Z
TLE epoch observation values (Epoch: 2025-10-24T20:12:33.672Z)
Latitude
59.51418°
Longitude
-84.06179°
Altitude
980.301 km
Speed
7.311 km/s
True Right ascension
16h 50m 14s
True Declination
59° 22' 05"
Sunlit
Object was in daylight at epoch
Visualization orbit readout
Latitude
Unknown
Longitude
Unknown
Altitude
Unknown
Speed
Unknown
Apparent Right ascension
Unknown
Apparent Declination
Unknown
Sunlit
N/A
Visualization observer readout
Local Sidereal Time
21:23:01
Azimuth
Unknown
Elevation
Unknown
Doppler factor
Unknown
Orbital elements
Apogee altitude
1,071.468 km
Perigee altitude
644.215 km
Semi-major axis
7,235.978 km
Eccentricity
0.02952
Inclination
98.9129°
RAAN
57.1921°
Arg. of periapsis
357.0921°
True anomaly
122.28241°
Mean anomaly
119.3884°
Eccentric anomaly
120.84074°
Mean motion
3.52612 °/min
Orbital period
102.1 mins
BSTAR
0.00099895
Loading maneuver chart data...
Computing Atmospheric mass density...

Documentation

Showing up to 5 results
|